Location: Lake Crest
(37.6062°N, 88.9176°W)
Time: 07:07:30
(UTC+00:00)

Okean 2 Rocket - Pass Details

Date: 15 December 2019
Orbit: 618 x 640 km, 82.5° (Epoch: 18 January)

Event Time Altitude Azimuth Distance (km) Brightness Sun altitude
Rises 00:34:57 0° 347° (NNW) 2,936 6.5 -22.4°
Reaches altitude 10° 00:37:13 10° 343° (NNW) 2,027 5.7 -22.8°
Maximum altitude 00:41:36 54° 267° (W) 780 3.8 -23.7°
Drops below altitude 10° 00:45:58 10° 190° (S) 2,022 5.9 -24.5°
Sets 00:48:15 0° 186° (S) 2,928 6.7 -25.0°
